loading
DOY 175 | 2024-06-23T17:25:19Z

THOR ABLESTAR DEB, 956

Orbit data source: Space-Track

THOR ABLESTAR DEB, 956 is space debris in LEO originally from a launch on Sun, 13 Dec 1964 UTC launched from the Air Force Western Test Range (AFWTR). Debris objects in space refer to the collection of defunct objects orbiting the Earth. Examples of debris include non-operational satellites, rocket bodies, and fragments generated from explosions, collisions, or faulty payload assembly.

Loading next visibility...
Loading greatness...
THOR ABLESTAR DEB details
NORAD ID956
COSPAR ID
1964-083B
Orbit
LEO
Last TLE update18 hours ago
Origin
Flag of USUSN BuWeps (US)
ManufacturerUnknown
BusUnknown
MotorUnknown
MassWet unknown, Dry mass unknown
Launch date (UTC)
1964-12-13 (60 years ago)
Launch vehicleUnknown
Launch site
Air Force Western Test Range (AFWTR)
Object type
Payload
Rocket body
Debris
Radar Cross SectionSmall (<0.1 m²)
Predictive object data (real-time)
Latitude15.67936°
Longitude94.11505°
Altitude1,028.222 km
Speed7.331 km/s
Apparent Right ascension20h 58m 56s
Apparent Declination-15° 26' 38"
Sunlit
Object is in daylight
Predictive observer data (real-time)
Local Sidereal Time04:34:20
Azimuth272.977° WNW
Elevation-28.021°
Doppler factor1
Orbital elements
Apogee1,026.184 km
Perigee989.244 km
Semi-major axis7,385.851 km
Eccentricity0.0025007
Inclination89.9385°
RAAN173.6726°
Arg. of periapsis20.9703°
True anomaly8.08282°
Mean anomaly8.0426°
Mean motion3.41934 °/min
BSTAR0.00040911
Period105.28 mins
Definitive object data (Epoch: 2024-06-22T23:11:39.203Z)
Latitude29.09751°
Longitude-85.82888°
Altitude996.078 km
Speed7.365 km/s
True Right ascension11h 34m 49s
True Declination28° 57' 23"
Sunlit
Object was in daylight at TLE epoch
TLE from 18 hours ago
0 THOR ABLESTAR DEB
1 00956U 64083B   24174.96642597  .00000352  00000-0  40911-3 0  9995
2 00956  89.9385 173.6726 0025007  20.9703   8.0426 13.66909079957204
Epoch: 2024-06-22T23:11Z
No data available

THOR ABLESTAR DEB Visibility forecast

Observer location: 39.9160978°, -105.1181434, 0m alt.

THOR ABLESTAR DEB is not visible in the next 10 days
Span
Click to sort rows by Start time (UTC) header in descending order
Start Az.
Max El. time (UTC)
Max El. Az.
Max El.
End time (UTC)
End Az.